Clarion, IA

8:20 PM CDT on September 25, 2016 (GMT -0500)
Clarion Municipal

Weather History for KCAV - June, 2013

Change the Weather History Date:

Saturday, June 1, 2013

  Actual Average Record
Temperature  
Mean Temperature 60 °F -  
Max Temperature 69 °F 76 °F 93 °F (2002)
Min Temperature 51 °F 51 °F 36 °F (1993)
Degree Days  
Heating Degree Days 5    
Growing Degree Days 10 (Base 50)    
Moisture  
Dew Point 54 °F    
Average Humidity 80    
Maximum Humidity 94    
Minimum Humidity 64    
Precipitation  
Precipitation 0.00 in - - ()
Sea Level Pressure  
Sea Level Pressure 29.72 in    
Wind  
Wind Speed 11 mph (West)    
Max Wind Speed 26 mph    
Max Gust Speed 33 mph    
Visibility 10 miles    
Events      
Averages and records for this station are not official NWS values.
T = Trace of Precipitation, MM = Missing Value Source: NWS Daily Summary

Daily Weather History Graph

Daily Weather History Graph

Search for Another Location

Airport or City:

Trip Planner

Search our weather history database for the weather conditions in past years. The results will help you decide how hot, cold, wet, or windy it might be!

Date:

Astronomy

Jun. 01, 2013 Rise Set
Actual Time 5:39 AM CDT 8:46 PM CDT
Civil Twilight 5:05 AM CDT 9:21 PM CDT
Nautical Twilight 4:21 AM CDT 10:05 PM CDT
Astronomical Twilight 3:28 AM CDT 10:58 PM CDT
Moon 1:44 AM CDT (6/1) 2:08 PM CDT (6/1)
Length of Visible Light 16h 16m
Length of Day
15h 07m
Last Quarter, 40% of the Moon is Illuminated
Jun 1
Last Quarter
Jun 8
New
Jun 16
First Quarter
Jun 23
Full
Jun 29
Last Quarter

Hourly Weather History & Observations

Time (CDT) Temp. Dew Point Humidity Pressure Visibility Wind Dir Wind Speed Gust Speed Precip Events Conditions
12:15 AM 62.6 °F 57.2 °F 82% 29.61 in 10.0 mi SSW 6.9 mph - N/A   Clear
12:35 AM 62.6 °F 57.2 °F 82% 29.61 in 10.0 mi SSW 6.9 mph - N/A   Clear
12:55 AM 60.8 °F 55.4 °F 82% 29.61 in 10.0 mi SSW 8.1 mph - N/A   Clear
1:15 AM 60.8 °F 55.4 °F 82% 29.62 in 10.0 mi SW 8.1 mph - N/A   Scattered Clouds
1:35 AM 59.0 °F 53.6 °F 82% 29.62 in 10.0 mi WSW 8.1 mph - N/A   Partly Cloudy
1:55 AM 59.0 °F 53.6 °F 82% 29.62 in 10.0 mi SW 6.9 mph - N/A   Clear
2:15 AM 57.2 °F 51.8 °F 82% 29.62 in 10.0 mi WSW 6.9 mph - N/A   Clear
2:35 AM 57.2 °F 51.8 °F 82% 29.62 in 10.0 mi SW 5.8 mph - N/A   Clear
2:55 AM 57.2 °F 51.8 °F 82% 29.62 in 10.0 mi WSW 6.9 mph - N/A   Clear
3:15 AM 55.4 °F 51.8 °F 88% 29.61 in 10.0 mi West 5.8 mph - N/A   Clear
3:35 AM 55.4 °F 51.8 °F 88% 29.61 in 10.0 mi SW 5.8 mph - N/A   Clear
3:55 AM 55.4 °F 50.0 °F 82% 29.61 in 10.0 mi SW 6.9 mph - N/A   Clear
4:15 AM 55.4 °F 50.0 °F 82% 29.60 in 10.0 mi WSW 8.1 mph - N/A   Clear
4:35 AM 55.4 °F 50.0 °F 82% 29.60 in 10.0 mi WSW 8.1 mph - N/A   Clear
4:55 AM 53.6 °F 50.0 °F 88% 29.61 in 10.0 mi SW 6.9 mph - N/A   Clear
5:15 AM 53.6 °F 50.0 °F 88% 29.63 in 10.0 mi SSW 6.9 mph - N/A   Clear
5:35 AM 53.6 °F 50.0 °F 88% 29.63 in 10.0 mi SSW 6.9 mph - N/A   Clear
5:55 AM 51.8 °F 50.0 °F 94% 29.63 in 10.0 mi SSW 8.1 mph - N/A   Clear
6:15 AM 53.6 °F 50.0 °F 88% 29.64 in 10.0 mi South 6.9 mph - N/A   Clear
6:35 AM 53.6 °F 50.0 °F 88% 29.64 in 10.0 mi SSW 8.1 mph - N/A   Clear
6:55 AM 55.4 °F 51.8 °F 88% 29.63 in 10.0 mi SW 6.9 mph - N/A   Mostly Cloudy
7:15 AM 57.2 °F 51.8 °F 82% 29.63 in 10.0 mi SW 10.4 mph - N/A   Overcast
7:35 AM 57.2 °F 51.8 °F 82% 29.64 in 10.0 mi WSW 10.4 mph - N/A   Overcast
7:55 AM 59.0 °F 53.6 °F 82% 29.65 in 10.0 mi WSW 12.7 mph - N/A   Overcast
8:15 AM 57.2 °F 53.6 °F 88% 29.65 in 10.0 mi WSW 12.7 mph - N/A   Overcast
8:35 AM 59.0 °F 53.6 °F 82% 29.65 in 10.0 mi WSW 11.5 mph - N/A   Overcast
8:55 AM 59.0 °F 53.6 °F 82% 29.66 in 10.0 mi WSW 11.5 mph - N/A   Overcast
9:15 AM 59.0 °F 55.4 °F 88% 29.67 in 10.0 mi WSW 8.1 mph - N/A   Overcast
9:35 AM 59.0 °F 55.4 °F 88% 29.67 in 4.0 mi WSW 10.4 mph 16.1 mph N/A   Overcast
9:55 AM 60.8 °F 55.4 °F 82% 29.67 in 10.0 mi West 10.4 mph - N/A   Overcast
10:15 AM 60.8 °F 55.4 °F 82% 29.67 in 10.0 mi West 10.4 mph - N/A   Overcast
10:35 AM 60.8 °F 57.2 °F 88% 29.67 in 10.0 mi West 9.2 mph - N/A   Overcast
10:55 AM 62.6 °F 55.4 °F 77% 29.68 in 10.0 mi WSW 6.9 mph - N/A   Overcast
11:15 AM 62.6 °F 55.4 °F 77% 29.68 in 10.0 mi WSW 6.9 mph - N/A   Overcast
11:35 AM 62.6 °F 57.2 °F 82% 29.69 in 10.0 mi West 13.8 mph - N/A   Overcast
11:55 AM 62.6 °F 57.2 °F 82% 29.70 in 10.0 mi WSW 12.7 mph - N/A   Mostly Cloudy
12:15 PM 62.6 °F 59.0 °F 88% 29.70 in 10.0 mi WSW 11.5 mph - N/A   Overcast
12:35 PM 62.6 °F 57.2 °F 82% 29.71 in 10.0 mi WSW 10.4 mph - N/A   Overcast
12:55 PM 64.4 °F 59.0 °F 83% 29.71 in 9.0 mi West 9.2 mph - N/A   Mostly Cloudy
1:15 PM 64.4 °F 57.2 °F 77% 29.71 in 10.0 mi West 8.1 mph 13.8 mph N/A   Overcast
1:35 PM 66.2 °F 59.0 °F 78% 29.71 in 10.0 mi West 6.9 mph - N/A   Overcast
1:55 PM 66.2 °F 59.0 °F 78% 29.71 in 10.0 mi West 8.1 mph - N/A   Overcast
2:15 PM 66.2 °F 57.2 °F 73% 29.71 in 10.0 mi NNW 8.1 mph 15.0 mph N/A   Overcast
2:35 PM 68.0 °F 57.2 °F 68% 29.72 in 10.0 mi WNW 10.4 mph - N/A   Overcast
2:55 PM 66.2 °F 57.2 °F 73% 29.72 in 10.0 mi NW 10.4 mph 17.3 mph N/A   Overcast
3:15 PM 68.0 °F 57.2 °F 68% 29.73 in 10.0 mi NW 9.2 mph - N/A   Mostly Cloudy
3:35 PM 69.8 °F 57.2 °F 64% 29.72 in 10.0 mi WNW 9.2 mph 16.1 mph N/A   Mostly Cloudy
3:55 PM 68.0 °F 57.2 °F 68% 29.73 in 10.0 mi NW 12.7 mph - N/A   Mostly Cloudy
4:15 PM 66.2 °F 59.0 °F 78% 29.73 in 10.0 mi NNW 26.5 mph 33.4 mph N/A   Mostly Cloudy
4:35 PM 64.4 °F 59.0 °F 83% 29.74 in 10.0 mi NNW 25.3 mph 32.2 mph N/A   Overcast
4:55 PM 62.6 °F 57.2 °F 82% 29.75 in 8.0 mi NNW 23.0 mph 28.8 mph N/A   Light Drizzle
5:15 PM 62.6 °F 55.4 °F 77% 29.77 in 10.0 mi NW 24.2 mph 31.1 mph N/A   Overcast
5:35 PM 64.4 °F 55.4 °F 73% 29.77 in 10.0 mi NW 23.0 mph - N/A   Overcast
5:55 PM 62.6 °F 55.4 °F 77% 29.78 in 10.0 mi NW 23.0 mph 31.1 mph N/A   Overcast
6:15 PM 62.6 °F 53.6 °F 72% 29.79 in 10.0 mi NW 23.0 mph 31.1 mph N/A   Overcast
6:35 PM 60.8 °F 53.6 °F 77% 29.79 in 10.0 mi NW 23.0 mph 29.9 mph N/A   Overcast
6:55 PM 60.8 °F 53.6 °F 77% 29.80 in 10.0 mi NW 26.5 mph - N/A   Overcast
7:15 PM 60.8 °F 53.6 °F 77% 29.80 in 10.0 mi NW 21.9 mph 31.1 mph N/A   Overcast
7:35 PM 60.8 °F 51.8 °F 72% 29.81 in 10.0 mi NNW 21.9 mph 33.4 mph N/A   Overcast
7:55 PM 60.8 °F 51.8 °F 72% 29.83 in 10.0 mi NW 24.2 mph 32.2 mph N/A   Overcast
8:15 PM 59.0 °F 51.8 °F 77% 29.83 in 10.0 mi NNW 25.3 mph 33.4 mph N/A   Overcast
8:35 PM 59.0 °F 51.8 °F 77% 29.84 in 10.0 mi NW 23.0 mph 32.2 mph N/A   Overcast
8:55 PM 59.0 °F 51.8 °F 77% 29.85 in 10.0 mi NW 24.2 mph - N/A   Overcast
9:15 PM 59.0 °F 51.8 °F 77% 29.85 in 10.0 mi NW 24.2 mph - N/A   Overcast
9:35 PM 57.2 °F 51.8 °F 82% 29.87 in 10.0 mi NW 21.9 mph 27.6 mph N/A   Overcast
9:55 PM 57.2 °F 51.8 °F 82% 29.88 in 10.0 mi NW 20.7 mph - N/A   Overcast
10:15 PM 57.2 °F 50.0 °F 77% 29.89 in 10.0 mi NW 21.9 mph 28.8 mph N/A   Overcast
10:35 PM 57.2 °F 50.0 °F 77% 29.90 in 10.0 mi NW 19.6 mph - N/A   Overcast
10:55 PM 57.2 °F 50.0 °F 77% 29.90 in 10.0 mi NNW 18.4 mph 26.5 mph N/A   Overcast
11:15 PM 57.2 °F 48.2 °F 72% 29.91 in 10.0 mi NNW 18.4 mph 27.6 mph N/A   Overcast
11:35 PM 55.4 °F 48.2 °F 77% 29.92 in 10.0 mi NNW 12.7 mph 26.5 mph N/A   Overcast
11:55 PM 55.4 °F 48.2 °F 77% 29.93 in 10.0 mi NNW 18.4 mph 27.6 mph N/A   Overcast